| time (UTC) | temp F | wind direction | speed MPH | gust MPH | rain 1hr in | rain 24hr in | rain mn in | humidity % | barometer mb |
| 20260507111749 | 64 | 119 | 5.0 | 0.0 | 0.00 | 0.00 | 0.00 | 63 | 1022.6 |
| 20260507110749 | 62 | 340 | 1.0 | 0.0 | 0.00 | 0.00 | 0.00 | 65 | 1023.0 |
| 20260507105749 | 62 | 237 | 1.0 | 0.0 | 0.00 | 0.00 | 0.00 | 65 | 1023.2 |
| 20260507104749 | 60 | 155 | 3.0 | 0.0 | 0.00 | 0.00 | 0.00 | 65 | 1023.6 |
| 20260507103749 | 61 | 354 | 7.0 | 0.0 | 0.00 | 0.00 | 0.00 | 67 | 1023.1 |
| 20260507102749 | 61 | 29 | 5.0 | 0.0 | 0.00 | 0.00 | 0.00 | 69 | 1023.7 |
| 20260507101749 | 60 | 312 | 3.0 | 0.0 | 0.00 | 0.00 | 0.00 | 69 | 1023.9 |
| 20260507100749 | 60 | 299 | 7.0 | 0.0 | 0.00 | 0.00 | 0.00 | 69 | 1023.8 |
| 20260507095749 | 61 | 307 | 6.0 | 0.0 | 0.00 | 0.00 | 0.00 | 68 | 1023.6 |
| 20260507094749 | 60 | 20 | 6.0 | 0.0 | 0.00 | 0.00 | 0.00 | 69 | 1023.8 |
| 20260507093748 | 59 | 28 | 8.0 | 0.0 | 0.00 | 0.00 | 0.00 | 70 | 1024.0 |
| 20260507092749 | 59 | 313 | 4.0 | 0.0 | 0.00 | 0.00 | 0.00 | 72 | 1023.8 |
| 20260507091749 | 58 | 0 | 6.0 | 0.0 | 0.00 | 0.00 | 0.00 | 73 | 1024.2 |
| 20260507090748 | 57 | 3 | 5.0 | 0.0 | 0.00 | 0.00 | 0.00 | 74 | 1024.2 |
| 20260507085749 | 56 | 310 | 5.0 | 0.0 | 0.00 | 0.00 | 0.00 | 76 | 1024.4 |
| 20260507084749 | 56 | 24 | 5.0 | 0.0 | 0.00 | 0.00 | 0.00 | 76 | 1024.3 |
| 20260507083748 | 56 | 13 | 9.0 | 0.0 | 0.00 | 0.00 | 0.00 | 77 | 1024.4 |
| 20260507082748 | 57 | 282 | 2.0 | 0.0 | 0.00 | 0.00 | 0.00 | 78 | 1024.3 |
| 20260507081749 | 56 | 310 | 4.0 | 0.0 | 0.00 | 0.00 | 0.00 | 78 | 1024.1 |
| 20260507080748 | 57 | 341 | 6.0 | 0.0 | 0.00 | 0.00 | 0.00 | 78 | 1024.1 |
| 20260507075748 | 56 | 333 | 7.0 | 0.0 | 0.00 | 0.00 | 0.00 | 80 | 1024.2 |
| 20260507074749 | 55 | 317 | 4.0 | 0.0 | 0.00 | 0.00 | 0.00 | 79 | 1024.5 |
| 20260507073748 | 54 | 32 | 6.0 | 0.0 | 0.00 | 0.00 | 0.00 | 78 | 1024.7 |
| 20260507072748 | 53 | 175 | 0.0 | 0.0 | 0.00 | 0.00 | 0.00 | 78 | 1024.6 |
| 20260507071748 | 51 | 7 | 1.0 | 0.0 | 0.00 | 0.00 | 0.00 | 78 | 1025.0 |
| 20260507070748 | 51 | 304 | 0.0 | 0.0 | 0.00 | 0.00 | 0.00 | 79 | 1025.0 |
| 20260507065748 | 50 | 150 | 5.0 | 0.0 | 0.00 | 0.00 | 0.00 | 81 | 1024.9 |
| 20260507064750 | 48 | 158 | 7.0 | 0.0 | 0.00 | 0.00 | 0.00 | 84 | 1025.3 |
| 20260507063750 | 48 | 152 | 6.0 | 0.0 | 0.00 | 0.00 | 0.00 | 86 | 1025.4 |
| 20260507062749 | 46 | 126 | 3.0 | 0.0 | 0.00 | 0.00 | 0.00 | 87 | 1025.9 |
| 20260507061749 | 46 | 147 | 3.0 | 0.0 | 0.00 | 0.00 | 0.00 | 88 | 1025.6 |
| 20260507060750 | 45 | 177 | 5.0 | 0.0 | 0.00 | 0.00 | 0.00 | 89 | 1026.2 |
| 20260507055748 | 45 | 92 | 2.0 | 0.0 | 0.00 | 0.00 | 0.00 | 93 | 1026.1 |
| 20260507054749 | 44 | 259 | 0.0 | 0.0 | 0.00 | 0.00 | 0.00 | 93 | 1026.2 |
| 20260507053749 | 43 | 168 | 6.0 | 0.0 | 0.00 | 0.00 | 0.00 | 94 | 1026.2 |
| 20260507052748 | 43 | 157 | 1.0 | 0.0 | 0.00 | 0.00 | 0.00 | 95 | 1026.1 |
| 20260507051748 | 43 | 154 | 8.0 | 0.0 | 0.00 | 0.00 | 0.00 | 97 | 1025.9 |
| 20260507050749 | 42 | 140 | 2.0 | 0.0 | 0.00 | 0.00 | 0.00 | 97 | 1026.3 |
| 20260507045749 | 42 | 140 | 3.0 | 0.0 | 0.00 | 0.00 | 0.00 | 98 | 1026.1 |
| 20260507043749 | 41 | 127 | 4.0 | 0.0 | 0.00 | 0.00 | 0.00 | 98 | 1025.8 |
| 20260507042748 | 41 | 224 | 0.0 | 0.0 | 0.00 | 0.00 | 0.00 | 97 | 1026.0 |
| 20260507041748 | 41 | 102 | 2.0 | 0.0 | 0.00 | 0.00 | 0.00 | 98 | 1026.1 |
| 20260507040748 | 41 | 101 | 2.0 | 0.0 | 0.00 | 0.00 | 0.00 | 97 | 1026.0 |
| 20260507035748 | 41 | 209 | 0.0 | 0.0 | 0.00 | 0.00 | 0.00 | 97 | 1025.9 |
| 20260507034749 | 41 | 158 | 0.0 | 0.0 | 0.00 | 0.00 | 0.00 | 97 | 1025.7 |
| 20260507033749 | 42 | 269 | 0.0 | 0.0 | 0.00 | 0.00 | 0.00 | 97 | 1025.4 |
| 20260507032749 | 42 | 153 | 2.0 | 0.0 | 0.00 | 0.00 | 0.00 | 97 | 1025.4 |
| 20260507031748 | 42 | 168 | 0.0 | 0.0 | 0.00 | 0.00 | 0.00 | 97 | 1025.3 |
| 20260507030748 | 42 | 117 | 2.0 | 0.0 | 0.00 | 0.00 | 0.00 | 97 | 1025.1 |
| 20260507025749 | 42 | 245 | 1.0 | 0.0 | 0.00 | 0.00 | 0.00 | 97 | 1025.1 |
| 20260507024749 | 42 | 298 | 1.0 | 0.0 | 0.00 | 0.00 | 0.00 | 97 | 1025.4 |
| 20260507023750 | 42 | 315 | 0.0 | 0.0 | 0.00 | 0.00 | 0.00 | 97 | 1025.2 |
| 20260507022749 | 42 | 104 | 4.0 | 0.0 | 0.00 | 0.00 | 0.00 | 97 | 1025.3 |
| 20260507021749 | 42 | 265 | 2.0 | 0.0 | 0.00 | 0.00 | 0.00 | 97 | 1025.1 |
| 20260507020749 | 42 | 160 | 0.0 | 0.0 | 0.00 | 0.00 | 0.00 | 97 | 1025.0 |
| 20260507015748 | 43 | 122 | 1.0 | 0.0 | 0.00 | 0.00 | 0.00 | 97 | 1025.0 |
| 20260507014749 | 43 | 123 | 1.0 | 0.0 | 0.00 | 0.00 | 0.00 | 97 | 1024.7 |
| 20260507013749 | 43 | 77 | 2.0 | 0.0 | 0.00 | 0.00 | 0.00 | 97 | 1024.7 |
| 20260507012749 | 43 | 262 | 1.0 | 0.0 | 0.00 | 0.00 | 0.00 | 97 | 1024.8 |
| 20260507011749 | 43 | 120 | 3.0 | 0.0 | 0.00 | 0.00 | 0.00 | 97 | 1024.6 |
| 20260507010748 | 44 | 134 | 4.0 | 0.0 | 0.00 | 0.00 | 0.00 | 97 | 1024.7 |
| 20260507005749 | 44 | 133 | 5.0 | 0.0 | 0.00 | 0.00 | 0.00 | 97 | 1024.9 |
| 20260507003748 | 44 | 52 | 0.0 | 0.0 | 0.00 | 0.00 | 0.00 | 96 | 1024.5 |
| 20260507002748 | 44 | 52 | 0.0 | 0.0 | 0.00 | 0.00 | 0.00 | 96 | 1024.7 |
| 20260507001748 | 44 | 169 | 2.0 | 0.0 | 0.00 | 0.00 | 0.00 | 96 | 1024.5 |
| 20260507000748 | 44 | 257 | 1.0 | 0.0 | 0.00 | 0.00 | 0.00 | 96 | 1024.5 |
| 20260506235749 | 44 | 286 | 0.0 | 0.0 | 0.00 | 0.00 | 0.00 | 95 | 1024.5 |
| 20260506234749 | 45 | 48 | 0.0 | 0.0 | 0.00 | 0.00 | 0.00 | 95 | 1024.3 |
| 20260506233748 | 45 | 304 | 2.0 | 0.0 | 0.00 | 0.00 | 0.00 | 94 | 1024.2 |
| 20260506232748 | 46 | 176 | 2.0 | 0.0 | 0.00 | 0.00 | 0.00 | 93 | 1023.7 |
| 20260506231749 | 46 | 82 | 4.0 | 0.0 | 0.00 | 0.00 | 0.00 | 93 | 1023.8 |
| 20260506225749 | 47 | 130 | 0.0 | 0.0 | 0.00 | 0.00 | 0.00 | 92 | 1023.5 |
| 20260506224748 | 48 | 174 | 3.0 | 0.0 | 0.00 | 0.00 | 0.00 | 92 | 1023.1 |
| 20260506223749 | 47 | 157 | 0.0 | 0.0 | 0.00 | 0.00 | 0.00 | 91 | 1023.5 |
| 20260506222748 | 48 | 106 | 4.0 | 0.0 | 0.00 | 0.00 | 0.00 | 90 | 1023.1 |
| 20260506221748 | 47 | 278 | 2.0 | 0.0 | 0.00 | 0.00 | 0.00 | 90 | 1023.0 |
| 20260506220749 | 48 | 198 | 0.0 | 0.0 | 0.00 | 0.00 | 0.00 | 89 | 1023.1 |
| 20260506215749 | 49 | 354 | 2.0 | 0.0 | 0.00 | 0.00 | 0.00 | 88 | 1022.8 |
| 20260506214749 | 48 | 102 | 0.0 | 0.0 | 0.00 | 0.00 | 0.00 | 87 | 1023.0 |
| 20260506212749 | 49 | 102 | 1.0 | 0.0 | 0.00 | 0.00 | 0.00 | 85 | 1022.4 |
| 20260506211748 | 50 | 286 | 6.0 | 0.0 | 0.00 | 0.00 | 0.00 | 83 | 1022.4 |
| 20260506210749 | 51 | 17 | 3.0 | 0.0 | 0.00 | 0.00 | 0.00 | 82 | 1022.0 |
| 20260506205748 | 53 | 117 | 4.0 | 0.0 | 0.00 | 0.00 | 0.00 | 82 | 1021.8 |
| 20260506203748 | 52 | 148 | 5.0 | 0.0 | 0.00 | 0.00 | 0.00 | 84 | 1021.6 |
| 20260506202749 | 53 | 158 | 7.0 | 0.0 | 0.00 | 0.00 | 0.00 | 82 | 1021.3 |
| 20260506201748 | 56 | 179 | 6.0 | 0.0 | 0.00 | 0.00 | 0.00 | 77 | 1020.4 |
| 20260506200749 | 56 | 178 | 3.0 | 0.0 | 0.00 | 0.00 | 0.00 | 76 | 1020.4 |
| 20260506195748 | 56 | 117 | 21.0 | 0.0 | 0.00 | 0.00 | 0.00 | 76 | 1020.3 |
| 20260506194748 | 56 | 126 | 13.0 | 0.0 | 0.00 | 0.00 | 0.00 | 74 | 1020.2 |
| 20260506193749 | 56 | 121 | 7.0 | 0.0 | 0.00 | 0.00 | 0.00 | 76 | 1020.1 |
| 20260506192749 | 56 | 125 | 12.0 | 0.0 | 0.00 | 0.00 | 0.00 | 76 | 1019.7 |
| 20260506191749 | 56 | 100 | 4.0 | 0.0 | 0.00 | 0.00 | 0.00 | 73 | 1019.8 |
| 20260506190749 | 57 | 136 | 7.0 | 0.0 | 0.00 | 0.00 | 0.00 | 72 | 1018.8 |
| 20260506185749 | 57 | 102 | 7.0 | 0.0 | 0.00 | 0.00 | 0.00 | 72 | 1018.9 |
| 20260506184748 | 56 | 153 | 7.0 | 0.0 | 0.00 | 0.00 | 0.00 | 74 | 1019.0 |
| 20260506183748 | 58 | 107 | 7.0 | 0.0 | 0.00 | 0.00 | 0.00 | 69 | 1018.6 |
| 20260506182749 | 58 | 139 | 8.0 | 0.0 | 0.00 | 0.00 | 0.00 | 69 | 1018.4 |
| 20260506181749 | 58 | 152 | 8.0 | 0.0 | 0.00 | 0.00 | 0.00 | 71 | 1018.1 |
| 20260506180749 | 59 | 134 | 16.0 | 0.0 | 0.00 | 0.00 | 0.00 | 69 | 1017.8 |
| 20260506175749 | 59 | 161 | 6.0 | 0.0 | 0.00 | 0.00 | 0.00 | 71 | 1017.6 |
| 20260506174748 | 59 | 118 | 21.0 | 0.0 | 0.00 | 0.00 | 0.00 | 69 | 1017.3 |
| 20260506173748 | 60 | 139 | 4.0 | 0.0 | 0.00 | 0.00 | 0.00 | 68 | 1017.3 |
| 20260506172748 | 60 | 154 | 6.0 | 0.0 | 0.00 | 0.00 | 0.00 | 68 | 1016.7 |
| 20260506171749 | 60 | 147 | 9.0 | 0.0 | 0.00 | 0.00 | 0.00 | 70 | 1017.3 |
| 20260506170748 | 61 | 97 | 10.0 | 0.0 | 0.00 | 0.00 | 0.00 | 69 | 1016.7 |
| 20260506165749 | 61 | 126 | 11.0 | 0.0 | 0.00 | 0.00 | 0.00 | 69 | 1016.9 |
| 20260506163749 | 61 | 126 | 11.0 | 0.0 | 0.00 | 0.00 | 0.00 | 67 | 1016.7 |
| 20260506162750 | 61 | 105 | 8.0 | 0.0 | 0.00 | 0.00 | 0.00 | 68 | 1016.8 |
| 20260506161749 | 61 | 121 | 18.0 | 0.0 | 0.00 | 0.00 | 0.00 | 68 | 1016.7 |
| 20260506160748 | 62 | 126 | 14.0 | 0.0 | 0.00 | 0.00 | 0.00 | 66 | 1016.5 |
| 20260506155748 | 61 | 171 | 13.0 | 0.0 | 0.00 | 0.00 | 0.00 | 66 | 1016.4 |
| 20260506154749 | 61 | 120 | 15.0 | 0.0 | 0.00 | 0.00 | 0.00 | 67 | 1016.6 |
| 20260506153749 | 61 | 169 | 13.0 | 0.0 | 0.00 | 0.00 | 0.00 | 69 | 1016.7 |
| 20260506152749 | 61 | 158 | 15.0 | 0.0 | 0.00 | 0.00 | 0.00 | 68 | 1016.5 |
| 20260506151749 | 61 | 165 | 7.0 | 0.0 | 0.00 | 0.00 | 0.00 | 68 | 1016.9 |
| 20260506150748 | 61 | 138 | 14.0 | 0.0 | 0.00 | 0.00 | 0.00 | 69 | 1016.8 |
| 20260506145748 | 61 | 180 | 10.0 | 0.0 | 0.00 | 0.00 | 0.00 | 69 | 1016.8 |
| 20260506144748 | 61 | 168 | 7.0 | 0.0 | 0.00 | 0.00 | 0.00 | 68 | 1016.7 |
| 20260506143749 | 61 | 176 | 6.0 | 0.0 | 0.00 | 0.00 | 0.00 | 69 | 1016.9 |
| 20260506142749 | 61 | 146 | 9.0 | 0.0 | 0.00 | 0.00 | 0.00 | 68 | 1016.8 |
| 20260506141748 | 62 | 185 | 5.0 | 0.0 | 0.00 | 0.00 | 0.00 | 66 | 1016.6 |
| 20260506140749 | 63 | 110 | 8.0 | 0.0 | 0.00 | 0.00 | 0.00 | 66 | 1016.5 |
| 20260506135749 | 63 | 126 | 8.0 | 0.0 | 0.00 | 0.00 | 0.00 | 66 | 1016.3 |
| 20260506134749 | 62 | 124 | 21.0 | 0.0 | 0.00 | 0.00 | 0.00 | 67 | 1016.4 |
| 20260506133748 | 62 | 174 | 12.0 | 0.0 | 0.00 | 0.00 | 0.00 | 67 | 1017.2 |
| 20260506132748 | 61 | 188 | 9.0 | 0.0 | 0.00 | 0.00 | 0.00 | 68 | 1016.8 |
| 20260506131749 | 63 | 170 | 13.0 | 0.0 | 0.00 | 0.00 | 0.00 | 66 | 1016.4 |
| 20260506130748 | 63 | 169 | 13.0 | 0.0 | 0.00 | 0.00 | 0.00 | 64 | 1016.9 |
| 20260506125749 | 62 | 121 | 22.0 | 0.0 | 0.00 | 0.00 | 0.00 | 65 | 1016.9 |
| 20260506123749 | 63 | 176 | 10.0 | 0.0 | 0.00 | 0.00 | 0.00 | 63 | 1016.6 |
| 20260506122749 | 63 | 124 | 19.0 | 0.0 | 0.00 | 0.00 | 0.00 | 62 | 1016.5 |
| 20260506121749 | 62 | 154 | 15.0 | 0.0 | 0.00 | 0.00 | 0.00 | 63 | 1016.4 |
| 20260506120749 | 63 | 137 | 12.0 | 0.0 | 0.00 | 0.00 | 0.00 | 64 | 1016.3 |
| 20260506115749 | 63 | 142 | 22.0 | 0.0 | 0.00 | 0.00 | 0.00 | 62 | 1016.3 |
| 20260506114749 | 63 | 136 | 9.0 | 0.0 | 0.00 | 0.00 | 0.00 | 60 | 1016.2 |
| 20260506113749 | 62 | 177 | 20.0 | 0.0 | 0.00 | 0.00 | 0.00 | 61 | 1016.6 |
| 20260506112749 | 62 | 146 | 8.0 | 0.0 | 0.00 | 0.00 | 0.00 | 63 | 1016.9 |